Time,TemperatureF,DewpointF,PressureIn,WindDirection,WindDirectionDegrees,WindSpeedMPH,WindSpeedGustMPH,Humidity,HourlyPrecipIn,Conditions,Clouds,dailyrainin,SoftwareType,DateUTC
2013-02-10 00:00:00,25.8,-99.9,30.02,West,279,0.0,0.0,-999,0.00,,---,0.00,VWS V14.01,2013-02-10 08:00:00,
2013-02-10 00:01:00,26.5,-99.9,30.03,NW,317,0.0,5.0,-999,0.00,,---,0.00,VWS V14.01,2013-02-10 08:01:00,
2013-02-10 00:06:00,27.0,-99.9,30.03,NW,317,0.0,1.0,-999,0.00,,---,0.00,VWS V14.01,2013-02-10 08:06:00,
2013-02-10 00:11:00,26.5,-99.9,30.03,North,9,0.0,4.0,-999,0.00,,---,0.00,VWS V14.01,2013-02-10 08:11:00,
2013-02-10 00:16:00,26.7,-99.9,30.03,North,9,0.0,4.0,-999,0.00,,---,0.00,VWS V14.01,2013-02-10 08:16:00,
2013-02-10 00:21:00,26.6,-99.9,30.03,North,9,0.0,4.0,-999,0.00,,---,0.00,VWS V14.01,2013-02-10 08:21:00,
2013-02-10 00:26:00,26.6,-99.9,30.03,North,9,0.0,4.0,-999,0.00,,---,0.00,VWS V14.01,2013-02-10 08:26:00,
2013-02-10 00:31:00,25.9,-99.9,30.03,West,279,0.0,4.0,-999,0.00,,---,0.00,VWS V14.01,2013-02-10 08:31:00,
2013-02-10 00:36:00,26.2,-99.9,30.02,West,279,0.0,0.0,-999,0.00,,---,0.00,VWS V14.01,2013-02-10 08:36:00,
2013-02-10 00:41:00,26.6,-99.9,30.02,West,279,0.0,0.0,-999,0.00,,---,0.00,VWS V14.01,2013-02-10 08:41:00,
2013-02-10 00:46:00,26.2,-99.9,30.02,West,279,0.0,0.0,-999,0.00,,---,0.00,VWS V14.01,2013-02-10 08:46:00,
2013-02-10 00:51:00,26.1,-99.9,30.02,West,279,0.0,0.0,-999,0.00,,---,0.00,VWS V14.01,2013-02-10 08:51:00,
2013-02-10 00:56:00,25.2,-99.9,30.02,West,279,0.0,0.0,-999,0.00,,---,0.00,VWS V14.01,2013-02-10 08:56:00,
2013-02-10 01:00:00,25.0,-99.9,30.02,West,279,0.0,2.0,-999,0.00,,---,0.00,VWS V14.01,2013-02-10 09:00:00,
2013-02-10 01:01:00,25.7,-99.9,30.02,West,279,0.0,0.0,-999,0.00,,---,0.00,VWS V14.01,2013-02-10 09:01:00,
2013-02-10 01:06:00,25.9,-99.9,30.02,West,279,1.0,2.0,-999,0.00,,---,0.00,VWS V14.01,2013-02-10 09:06:00,
2013-02-10 01:11:00,25.5,-99.9,30.02,West,279,0.0,3.0,-999,0.00,,---,0.00,VWS V14.01,2013-02-10 09:11:00,
2013-02-10 01:16:00,25.5,-99.9,30.02,West,279,0.0,3.0,-999,0.00,,---,0.00,VWS V14.01,2013-02-10 09:16:00,
2013-02-10 01:21:00,25.7,-99.9,30.02,West,279,0.0,3.0,-999,0.00,,---,0.00,VWS V14.01,2013-02-10 09:21:00,
2013-02-10 01:26:00,25.4,-99.9,30.02,West,279,0.0,3.0,-999,0.00,,---,0.00,VWS V14.01,2013-02-10 09:26:00,
2013-02-10 01:31:00,25.6,-99.9,30.02,West,279,0.0,3.0,-999,0.00,,---,0.00,VWS V14.01,2013-02-10 09:31:00,
2013-02-10 01:36:00,25.5,-99.9,30.02,West,279,0.0,0.0,-999,0.00,,---,0.00,VWS V14.01,2013-02-10 09:36:00,
2013-02-10 01:41:00,25.3,-99.9,30.02,West,279,0.0,0.0,-999,0.00,,---,0.00,VWS V14.01,2013-02-10 09:41:00,
2013-02-10 01:46:00,25.2,-99.9,30.02,West,279,0.0,0.0,-999,0.00,,---,0.00,VWS V14.01,2013-02-10 09:46:00,
2013-02-10 01:51:00,25.0,-99.9,30.02,West,279,0.0,2.0,-999,0.00,,---,0.00,VWS V14.01,2013-02-10 09:51:00,
2013-02-10 01:56:00,25.1,-99.9,30.02,West,279,0.0,2.0,-999,0.00,,---,0.00,VWS V14.01,2013-02-10 09:56:00,
2013-02-10 02:00:00,24.8,-99.9,30.01,East,97,0.0,4.0,-999,0.00,,---,0.00,VWS V14.01,2013-02-10 10:00:00,
2013-02-10 02:01:00,24.9,-99.9,30.02,West,279,0.0,2.0,-999,0.00,,---,0.00,VWS V14.01,2013-02-10 10:01:00,
2013-02-10 02:06:00,25.2,-99.9,30.02,West,279,0.0,0.0,-999,0.00,,---,0.00,VWS V14.01,2013-02-10 10:06:00,
2013-02-10 02:11:00,25.0,-99.9,30.02,WNW,284,0.0,4.0,-999,0.00,,---,0.00,VWS V14.01,2013-02-10 10:11:00,
2013-02-10 02:16:00,25.1,-99.9,30.01,WNW,284,0.0,4.0,-999,0.00,,---,0.00,VWS V14.01,2013-02-10 10:16:00,
2013-02-10 02:21:00,24.9,-99.9,30.02,WNW,284,1.0,4.0,-999,0.00,,---,0.00,VWS V14.01,2013-02-10 10:21:00,
2013-02-10 02:26:00,25.5,-99.9,30.02,NNW,345,0.0,5.0,-999,0.00,,---,0.00,VWS V14.01,2013-02-10 10:26:00,
2013-02-10 02:30:00,24.8,-99.9,30.01,West,270,3.0,3.0,-999,0.00,,---,0.00,VWS V14.01,2013-02-10 10:30:00,
2013-02-10 02:31:00,24.8,-99.9,30.01,NNW,345,0.0,5.0,-999,0.00,,---,0.00,VWS V14.01,2013-02-10 10:31:00,
2013-02-10 02:36:00,25.2,-99.9,30.01,NNW,345,0.0,0.0,-999,0.00,,---,0.00,VWS V14.01,2013-02-10 10:36:00,
2013-02-10 02:41:00,24.7,-99.9,30.01,North,8,0.0,3.0,-999,0.00,,---,0.00,VWS V14.01,2013-02-10 10:41:00,
2013-02-10 02:46:00,25.2,-99.9,30.01,NW,322,1.0,4.0,-999,0.00,,---,0.00,VWS V14.01,2013-02-10 10:46:00,
2013-02-10 02:51:00,24.8,-99.9,30.01,East,97,0.0,4.0,-999,0.00,,---,0.00,VWS V14.01,2013-02-10 10:51:00,
2013-02-10 02:56:00,24.7,-99.9,30.02,East,97,0.0,4.0,-999,0.00,,---,0.00,VWS V14.01,2013-02-10 10:56:00,
2013-02-10 03:01:00,24.8,-99.9,30.01,East,97,0.0,4.0,-999,0.00,,---,0.00,VWS V14.01,2013-02-10 11:01:00,
2013-02-10 03:06:00,25.2,-99.9,30.01,East,97,0.0,2.0,-999,0.00,,---,0.00,VWS V14.01,2013-02-10 11:06:00,
2013-02-10 03:11:00,24.3,-99.9,30.01,East,97,0.0,2.0,-999,0.00,,---,0.00,VWS V14.01,2013-02-10 11:11:00,
2013-02-10 03:16:00,24.0,-99.9,30.01,SW,224,0.0,3.0,-999,0.00,,---,0.00,VWS V14.01,2013-02-10 11:16:00,
2013-02-10 03:21:00,24.2,-99.9,30.01,SW,224,0.0,3.0,-999,0.00,,---,0.00,VWS V14.01,2013-02-10 11:21:00,
2013-02-10 03:26:00,24.6,-99.9,30.01,SW,224,0.0,3.0,-999,0.00,,---,0.00,VWS V14.01,2013-02-10 11:26:00,
2013-02-10 03:30:00,23.7,-99.9,30.01,WNW,293,0.0,0.0,-999,0.00,,---,0.00,VWS V14.01,2013-02-10 11:30:00,
2013-02-10 03:31:00,24.8,-99.9,30.01,West,270,3.0,3.0,-999,0.00,,---,0.00,VWS V14.01,2013-02-10 11:31:00,
2013-02-10 03:36:00,24.8,-99.9,30.01,WNW,283,0.0,3.0,-999,0.00,,---,0.00,VWS V14.01,2013-02-10 11:36:00,
2013-02-10 03:41:00,24.5,-99.9,30.01,WNW,283,0.0,3.0,-999,0.00,,---,0.00,VWS V14.01,2013-02-10 11:41:00,
2013-02-10 03:46:00,24.0,-99.9,30.01,West,281,0.0,3.0,-999,0.00,,---,0.00,VWS V14.01,2013-02-10 11:46:00,
2013-02-10 03:51:00,24.4,-99.9,30.01,West,281,0.0,3.0,-999,0.00,,---,0.00,VWS V14.01,2013-02-10 11:51:00,
2013-02-10 03:56:00,23.7,-99.9,30.01,WNW,293,0.0,4.0,-999,0.00,,---,0.00,VWS V14.01,2013-02-10 11:56:00,
2013-02-10 04:00:00,23.7,-99.9,30.02,WNW,295,0.0,4.0,-999,0.00,,---,0.00,VWS V14.01,2013-02-10 12:00:00,
2013-02-10 04:01:00,23.9,-99.9,30.01,WNW,293,0.0,4.0,-999,0.00,,---,0.00,VWS V14.01,2013-02-10 12:01:00,
2013-02-10 04:06:00,23.8,-99.9,30.01,WNW,293,0.0,0.0,-999,0.00,,---,0.00,VWS V14.01,2013-02-10 12:06:00,
2013-02-10 04:11:00,23.6,-99.9,30.01,WNW,293,0.0,0.0,-999,0.00,,---,0.00,VWS V14.01,2013-02-10 12:11:00,
2013-02-10 04:16:00,23.5,-99.9,30.02,WNW,293,0.0,0.0,-999,0.00,,---,0.00,VWS V14.01,2013-02-10 12:16:00,
2013-02-10 04:21:00,23.8,-99.9,30.01,WNW,293,0.0,0.0,-999,0.00,,---,0.00,VWS V14.01,2013-02-10 12:21:00,
2013-02-10 04:26:00,23.7,-99.9,30.02,WNW,293,0.0,0.0,-999,0.00,,---,0.00,VWS V14.01,2013-02-10 12:26:00,
2013-02-10 04:30:00,23.3,-99.9,30.02,North,0,0.0,4.0,-999,0.00,,---,0.00,VWS V14.01,2013-02-10 12:30:00,
2013-02-10 04:31:00,23.7,-99.9,30.01,WNW,293,0.0,0.0,-999,0.00,,---,0.00,VWS V14.01,2013-02-10 12:31:00,
2013-02-10 04:36:00,23.7,-99.9,30.01,WNW,293,0.0,0.0,-999,0.00,,---,0.00,VWS V14.01,2013-02-10 12:36:00,
2013-02-10 04:42:00,23.7,-99.9,30.02,WNW,293,0.0,0.0,-999,0.00,,---,0.00,VWS V14.01,2013-02-10 12:42:00,
2013-02-10 04:47:00,23.5,-99.9,30.02,WNW,293,0.0,0.0,-999,0.00,,---,0.00,VWS V14.01,2013-02-10 12:47:00,
2013-02-10 04:52:00,23.2,-99.9,30.02,WNW,293,0.0,0.0,-999,0.00,,---,0.00,VWS V14.01,2013-02-10 12:52:00,
2013-02-10 04:57:00,23.9,-99.9,30.02,North,356,1.0,3.0,-999,0.00,,---,0.00,VWS V14.01,2013-02-10 12:57:00,
2013-02-10 05:00:00,22.7,-99.9,30.03,SE,130,0.0,4.0,-999,0.00,,---,0.00,VWS V14.01,2013-02-10 13:00:00,
2013-02-10 05:02:00,23.5,-99.9,30.02,WNW,295,0.0,0.0,-999,0.00,,---,0.00,VWS V14.01,2013-02-10 13:02:00,
2013-02-10 05:07:00,23.1,-99.9,30.02,NW,306,0.0,2.0,-999,0.00,,---,0.00,VWS V14.01,2013-02-10 13:07:00,
2013-02-10 05:12:00,23.9,-99.9,30.02,North,0,2.0,4.0,-999,0.00,,---,0.00,VWS V14.01,2013-02-10 13:12:00,
2013-02-10 05:17:00,23.1,-99.9,30.02,North,0,0.0,4.0,-999,0.00,,---,0.00,VWS V14.01,2013-02-10 13:17:00,
2013-02-10 05:22:00,23.0,-99.9,30.02,North,0,0.0,4.0,-999,0.00,,---,0.00,VWS V14.01,2013-02-10 13:22:00,
2013-02-10 05:27:00,22.9,-99.9,30.02,North,0,0.0,4.0,-999,0.00,,---,0.00,VWS V14.01,2013-02-10 13:27:00,
2013-02-10 05:30:00,22.4,-99.9,30.03,SE,130,0.0,3.0,-999,0.00,,---,0.00,VWS V14.01,2013-02-10 13:30:00,
2013-02-10 05:32:00,23.3,-99.9,30.02,North,0,0.0,0.0,-999,0.00,,---,0.00,VWS V14.01,2013-02-10 13:32:00,
2013-02-10 05:37:00,22.8,-99.9,30.02,North,0,0.0,3.0,-999,0.00,,---,0.00,VWS V14.01,2013-02-10 13:37:00,
2013-02-10 05:42:00,22.7,-99.9,30.02,SSE,163,0.0,3.0,-999,0.00,,---,0.00,VWS V14.01,2013-02-10 13:42:00,
2013-02-10 05:47:00,23.3,-99.9,30.02,SW,229,0.0,4.0,-999,0.00,,---,0.00,VWS V14.01,2013-02-10 13:47:00,
2013-02-10 05:52:00,22.9,-99.9,30.02,SE,130,2.0,4.0,-999,0.00,,---,0.00,VWS V14.01,2013-02-10 13:52:00,
2013-02-10 05:57:00,23.0,-99.9,30.02,SE,130,0.0,4.0,-999,0.00,,---,0.00,VWS V14.01,2013-02-10 13:57:00,
2013-02-10 06:00:00,22.3,-99.9,30.03,SE,130,0.0,2.0,-999,0.00,,---,0.00,VWS V14.01,2013-02-10 14:00:00,
2013-02-10 06:02:00,22.7,-99.9,30.02,SE,130,0.0,0.0,-999,0.00,,---,0.00,VWS V14.01,2013-02-10 14:02:00,
2013-02-10 06:07:00,22.6,-99.9,30.02,SE,130,0.0,0.0,-999,0.00,,---,0.00,VWS V14.01,2013-02-10 14:07:00,
2013-02-10 06:12:00,22.9,-99.9,30.03,SE,130,0.0,0.0,-999,0.00,,---,0.00,VWS V14.01,2013-02-10 14:12:00,
2013-02-10 06:17:00,23.2,-99.9,30.03,SE,130,0.0,0.0,-999,0.00,,---,0.00,VWS V14.01,2013-02-10 14:17:00,
2013-02-10 06:22:00,23.2,-99.9,30.03,SE,130,2.0,3.0,-999,0.00,,---,0.00,VWS V14.01,2013-02-10 14:22:00,
2013-02-10 06:27:00,22.4,-99.9,30.03,SE,130,0.0,3.0,-999,0.00,,---,0.00,VWS V14.01,2013-02-10 14:27:00,
2013-02-10 06:30:00,23.7,-99.9,30.03,SE,130,0.0,3.0,-999,0.00,,---,0.00,VWS V14.01,2013-02-10 14:30:00,
2013-02-10 06:32:00,22.6,-99.9,30.02,SE,130,0.0,0.0,-999,0.00,,---,0.00,VWS V14.01,2013-02-10 14:32:00,
2013-02-10 06:37:00,22.7,-99.9,30.03,SE,130,0.0,1.0,-999,0.00,,---,0.00,VWS V14.01,2013-02-10 14:37:00,
2013-02-10 06:42:00,22.4,-99.9,30.03,SE,130,0.0,2.0,-999,0.00,,---,0.00,VWS V14.01,2013-02-10 14:42:00,
2013-02-10 06:47:00,22.4,-99.9,30.03,SE,130,0.0,2.0,-999,0.00,,---,0.00,VWS V14.01,2013-02-10 14:47:00,
2013-02-10 06:52:00,22.3,-99.9,30.02,SE,130,0.0,2.0,-999,0.00,,---,0.00,VWS V14.01,2013-02-10 14:52:00,
2013-02-10 06:57:00,22.2,-99.9,30.03,SE,130,0.0,2.0,-999,0.00,,---,0.00,VWS V14.01,2013-02-10 14:57:00,
2013-02-10 07:00:00,24.0,-99.9,30.04,SE,130,0.0,2.0,-999,0.00,,---,0.00,VWS V14.01,2013-02-10 15:00:00,
2013-02-10 07:02:00,22.5,-99.9,30.03,SE,130,0.0,0.0,-999,0.00,,---,0.00,VWS V14.01,2013-02-10 15:02:00,
2013-02-10 07:07:00,22.7,-99.9,30.03,SE,130,0.0,0.0,-999,0.00,,---,0.00,VWS V14.01,2013-02-10 15:07:00,
2013-02-10 07:12:00,22.5,-99.9,30.03,SE,130,0.0,0.0,-999,0.00,,---,0.00,VWS V14.01,2013-02-10 15:12:00,
2013-02-10 07:17:00,23.0,-99.9,30.03,SE,130,0.0,0.0,-999,0.00,,---,0.00,VWS V14.01,2013-02-10 15:17:00,
2013-02-10 07:22:00,23.2,-99.9,30.03,SE,130,0.0,0.0,-999,0.00,,---,0.00,VWS V14.01,2013-02-10 15:22:00,
2013-02-10 07:27:00,23.5,-99.9,30.04,SE,130,0.0,0.0,-999,0.00,,---,0.00,VWS V14.01,2013-02-10 15:27:00,
2013-02-10 07:30:00,32.9,-99.9,30.05,SE,130,0.0,0.0,-999,0.00,,---,0.00,VWS V14.01,2013-02-10 15:30:00,
2013-02-10 07:32:00,23.6,-99.9,30.04,SE,130,0.0,0.0,-999,0.00,,---,0.00,VWS V14.01,2013-02-10 15:32:00,
2013-02-10 07:37:00,23.5,-99.9,30.04,SE,130,0.0,0.0,-999,0.00,,---,0.00,VWS V14.01,2013-02-10 15:37:00,
2013-02-10 07:42:00,24.1,-99.9,30.04,SE,130,0.0,0.0,-999,0.00,,---,0.00,VWS V14.01,2013-02-10 15:42:00,
2013-02-10 07:47:00,23.8,-99.9,30.04,SE,130,0.0,0.0,-999,0.00,,---,0.00,VWS V14.01,2013-02-10 15:47:00,
2013-02-10 07:52:00,24.2,-99.9,30.04,SE,130,0.0,2.0,-999,0.00,,---,0.00,VWS V14.01,2013-02-10 15:52:00,
2013-02-10 07:57:00,24.5,-99.9,30.04,SE,130,0.0,2.0,-999,0.00,,---,0.00,VWS V14.01,2013-02-10 15:57:00,
2013-02-10 08:00:00,40.8,-99.9,30.05,SE,130,0.0,1.0,-999,0.01,,---,0.01,VWS V14.01,2013-02-10 16:00:00,
2013-02-10 08:02:00,24.3,-99.9,30.05,SE,130,0.0,0.0,-999,0.00,,---,0.00,VWS V14.01,2013-02-10 16:02:00,
2013-02-10 08:07:00,24.8,-99.9,30.04,SE,130,0.0,0.0,-999,0.00,,---,0.00,VWS V14.01,2013-02-10 16:07:00,
2013-02-10 08:12:00,25.1,-99.9,30.04,SE,130,0.0,0.0,-999,0.00,,---,0.00,VWS V14.01,2013-02-10 16:12:00,
2013-02-10 08:17:00,26.2,-99.9,30.05,SE,130,0.0,0.0,-999,0.00,,---,0.00,VWS V14.01,2013-02-10 16:17:00,
2013-02-10 08:23:00,28.4,-99.9,30.05,SE,130,0.0,0.0,-999,0.00,,---,0.00,VWS V14.01,2013-02-10 16:23:00,
2013-02-10 08:27:00,29.8,-99.9,30.05,SE,130,0.0,0.0,-999,0.00,,---,0.00,VWS V14.01,2013-02-10 16:27:00,
2013-02-10 08:30:00,47.6,-99.9,30.04,SE,130,0.0,2.0,-999,0.01,,---,0.01,VWS V14.01,2013-02-10 16:30:00,
2013-02-10 08:33:00,32.5,-99.9,30.05,SE,130,0.0,0.0,-999,0.00,,---,0.00,VWS V14.01,2013-02-10 16:33:00,
2013-02-10 08:38:00,31.7,-99.9,30.05,SE,130,0.0,0.0,-999,0.00,,---,0.00,VWS V14.01,2013-02-10 16:38:00,
2013-02-10 08:43:00,35.5,-99.9,30.05,SE,130,0.0,0.0,-999,0.01,,---,0.01,VWS V14.01,2013-02-10 16:43:00,
2013-02-10 08:48:00,35.6,-99.9,30.05,SE,130,0.0,0.0,-999,0.01,,---,0.01,VWS V14.01,2013-02-10 16:48:00,
2013-02-10 08:53:00,38.7,-99.9,30.05,SE,130,0.0,0.0,-999,0.01,,---,0.01,VWS V14.01,2013-02-10 16:53:00,
2013-02-10 08:58:00,38.1,-99.9,30.05,SE,130,0.0,1.0,-999,0.01,,---,0.01,VWS V14.01,2013-02-10 16:58:00,
2013-02-10 09:00:00,51.2,-99.9,30.03,ESE,106,0.0,4.0,-999,0.01,,---,0.01,VWS V14.01,2013-02-10 17:00:00,
2013-02-10 09:03:00,43.0,-99.9,30.05,SE,130,0.0,0.0,-999,0.01,,---,0.01,VWS V14.01,2013-02-10 17:03:00,
2013-02-10 09:08:00,41.2,-99.9,30.05,SE,130,0.0,0.0,-999,0.01,,---,0.01,VWS V14.01,2013-02-10 17:08:00,
2013-02-10 09:13:00,42.2,-99.9,30.05,SE,130,0.0,1.0,-999,0.01,,---,0.01,VWS V14.01,2013-02-10 17:13:00,
2013-02-10 09:18:00,43.7,-99.9,30.05,SE,130,0.0,1.0,-999,0.01,,---,0.01,VWS V14.01,2013-02-10 17:18:00,
2013-02-10 09:23:00,43.4,-99.9,30.04,SE,130,2.0,2.0,-999,0.01,,---,0.01,VWS V14.01,2013-02-10 17:23:00,
2013-02-10 09:28:00,44.9,-99.9,30.04,SE,130,0.0,2.0,-999,0.01,,---,0.01,VWS V14.01,2013-02-10 17:28:00,
2013-02-10 09:33:00,46.6,-99.9,30.04,SE,130,0.0,0.0,-999,0.01,,---,0.01,VWS V14.01,2013-02-10 17:33:00,
2013-02-10 09:38:00,47.4,-99.9,30.03,SE,130,1.0,2.0,-999,0.01,,---,0.01,VWS V14.01,2013-02-10 17:38:00,
2013-02-10 09:43:00,48.5,-99.9,30.04,SE,130,2.0,2.0,-999,0.01,,---,0.01,VWS V14.01,2013-02-10 17:43:00,
2013-02-10 09:48:00,48.4,-99.9,30.03,SE,130,0.0,2.0,-999,0.01,,---,0.01,VWS V14.01,2013-02-10 17:48:00,
2013-02-10 09:53:00,50.1,-99.9,30.03,ESE,106,1.0,4.0,-999,0.01,,---,0.01,VWS V14.01,2013-02-10 17:53:00,
2013-02-10 09:58:00,50.9,-99.9,30.03,ESE,106,2.0,4.0,-999,0.01,,---,0.01,VWS V14.01,2013-02-10 17:58:00,
2013-02-10 10:00:00,58.5,-99.9,30.01,SSW,202,4.0,9.0,-999,0.00,,---,0.01,VWS V14.01,2013-02-10 18:00:00,
2013-02-10 10:03:00,51.0,-99.9,30.03,ESE,106,3.0,4.0,-999,0.00,,---,0.01,VWS V14.01,2013-02-10 18:03:00,
2013-02-10 10:08:00,51.9,-99.9,30.03,ESE,114,3.0,5.0,-999,0.00,,---,0.01,VWS V14.01,2013-02-10 18:08:00,
2013-02-10 10:13:00,52.3,-99.9,30.03,SE,128,3.0,5.0,-999,0.00,,---,0.01,VWS V14.01,2013-02-10 18:13:00,
2013-02-10 10:18:00,57.3,-99.9,30.03,South,187,0.0,6.0,-999,0.00,,---,0.01,VWS V14.01,2013-02-10 18:18:00,
2013-02-10 10:23:00,55.1,-99.9,30.02,NW,314,1.0,6.0,-999,0.00,,---,0.01,VWS V14.01,2013-02-10 18:23:00,
2013-02-10 10:28:00,54.8,-99.9,30.02,SSE,149,3.0,6.0,-999,0.00,,---,0.01,VWS V14.01,2013-02-10 18:28:00,
2013-02-10 10:30:00,59.2,-99.9,30.00,North,359,0.0,15.0,-999,0.00,,---,0.01,VWS V14.01,2013-02-10 18:30:00,
2013-02-10 10:33:00,55.2,-99.9,30.02,SE,141,4.0,5.0,-999,0.00,,---,0.01,VWS V14.01,2013-02-10 18:33:00,
2013-02-10 10:38:00,57.7,-99.9,30.02,South,173,2.0,6.0,-999,0.00,,---,0.01,VWS V14.01,2013-02-10 18:38:00,
2013-02-10 10:43:00,55.4,-99.9,30.02,East,99,1.0,6.0,-999,0.00,,---,0.01,VWS V14.01,2013-02-10 18:43:00,
2013-02-10 10:48:00,58.5,-99.9,30.03,WSW,254,2.0,9.0,-999,0.00,,---,0.01,VWS V14.01,2013-02-10 18:48:00,
2013-02-10 10:53:00,58.4,-99.9,30.02,SW,233,1.0,9.0,-999,0.00,,---,0.01,VWS V14.01,2013-02-10 18:53:00,
2013-02-10 10:58:00,54.9,-99.9,30.02,SE,125,0.0,9.0,-999,0.00,,---,0.01,VWS V14.01,2013-02-10 18:58:00,
2013-02-10 11:00:00,60.9,-99.9,29.98,West,262,2.0,9.0,-999,0.00,,---,0.01,VWS V14.01,2013-02-10 19:00:00,
2013-02-10 11:03:00,59.5,-99.9,30.02,ESE,106,3.0,4.0,-999,0.00,,---,0.01,VWS V14.01,2013-02-10 19:03:00,
2013-02-10 11:08:00,56.2,-99.9,30.02,West,261,3.0,15.0,-999,0.00,,---,0.01,VWS V14.01,2013-02-10 19:08:00,
2013-02-10 11:13:00,57.5,-99.9,30.01,South,178,3.0,15.0,-999,0.00,,---,0.01,VWS V14.01,2013-02-10 19:13:00,
2013-02-10 11:18:00,56.1,-99.9,30.01,NW,322,4.0,15.0,-999,0.00,,---,0.01,VWS V14.01,2013-02-10 19:18:00,
2013-02-10 11:23:00,57.6,-99.9,30.01,South,173,0.0,15.0,-999,0.00,,---,0.01,VWS V14.01,2013-02-10 19:23:00,
2013-02-10 11:28:00,62.0,-99.9,30.00,WSW,253,3.0,15.0,-999,0.00,,---,0.01,VWS V14.01,2013-02-10 19:28:00,
2013-02-10 11:30:00,57.1,-99.9,29.97,NW,309,4.0,9.0,-999,0.00,,---,0.01,VWS V14.01,2013-02-10 19:30:00,
2013-02-10 11:33:00,58.4,-99.9,30.00,WNW,303,2.0,7.0,-999,0.00,,---,0.01,VWS V14.01,2013-02-10 19:33:00,
2013-02-10 11:38:00,59.9,-99.9,30.00,West,277,4.0,7.0,-999,0.00,,---,0.01,VWS V14.01,2013-02-10 19:38:00,
2013-02-10 11:43:00,59.8,-99.9,29.99,NW,311,1.0,7.0,-999,0.00,,---,0.01,VWS V14.01,2013-02-10 19:43:00,
2013-02-10 11:48:00,59.7,-99.9,29.99,ENE,61,0.0,8.0,-999,0.00,,---,0.01,VWS V14.01,2013-02-10 19:48:00,
2013-02-10 11:53:00,60.2,-99.9,29.99,West,278,2.0,9.0,-999,0.00,,---,0.01,VWS V14.01,2013-02-10 19:53:00,
2013-02-10 11:58:00,58.3,-99.9,29.98,WNW,293,2.0,9.0,-999,0.00,,---,0.01,VWS V14.01,2013-02-10 19:58:00,
2013-02-10 12:00:00,57.2,-99.9,29.96,South,176,2.0,14.0,-999,0.00,,---,0.01,VWS V14.01,2013-02-10 20:00:00,
2013-02-10 12:03:00,62.1,-99.9,29.98,SW,236,2.0,8.0,-999,0.00,,---,0.01,VWS V14.01,2013-02-10 20:03:00,
2013-02-10 12:08:00,60.4,-99.9,29.98,SW,232,3.0,8.0,-999,0.00,,---,0.01,VWS V14.01,2013-02-10 20:08:00,
2013-02-10 12:13:00,58.9,-99.9,29.98,SSE,153,4.0,8.0,-999,0.00,,---,0.01,VWS V14.01,2013-02-10 20:13:00,
2013-02-10 12:18:00,59.9,-99.9,29.97,SW,227,0.0,8.0,-999,0.00,,---,0.01,VWS V14.01,2013-02-10 20:18:00,
2013-02-10 12:23:00,60.0,-99.9,29.97,WNW,284,2.0,9.0,-999,0.00,,---,0.01,VWS V14.01,2013-02-10 20:23:00,
2013-02-10 12:28:00,56.6,-99.9,29.97,NW,309,5.0,9.0,-999,0.00,,---,0.01,VWS V14.01,2013-02-10 20:28:00,
2013-02-10 12:30:00,56.4,-99.9,29.96,NW,324,0.0,10.0,-999,0.00,,---,0.01,VWS V14.01,2013-02-10 20:30:00,
2013-02-10 12:33:00,56.3,-99.9,29.97,West,275,6.0,7.0,-999,0.00,,---,0.01,VWS V14.01,2013-02-10 20:33:00,
2013-02-10 12:38:00,58.0,-99.9,29.97,WNW,286,3.0,12.0,-999,0.00,,---,0.01,VWS V14.01,2013-02-10 20:38:00,
2013-02-10 12:43:00,58.6,-99.9,29.96,SW,226,0.0,12.0,-999,0.00,,---,0.01,VWS V14.01,2013-02-10 20:43:00,
2013-02-10 12:48:00,58.2,-99.9,29.96,SSE,151,2.0,12.0,-999,0.00,,---,0.01,VWS V14.01,2013-02-10 20:48:00,
2013-02-10 12:53:00,57.0,-99.9,29.96,South,182,4.0,14.0,-999,0.00,,---,0.01,VWS V14.01,2013-02-10 20:53:00,
2013-02-10 12:58:00,56.2,-99.9,29.96,SSE,147,7.0,14.0,-999,0.00,,---,0.01,VWS V14.01,2013-02-10 20:58:00,
2013-02-10 13:00:00,55.3,-99.9,29.95,ENE,58,2.0,13.0,-999,0.00,,---,0.01,VWS V14.01,2013-02-10 21:00:00,
2013-02-10 13:03:00,57.3,-99.9,29.96,SSE,156,4.0,8.0,-999,0.00,,---,0.01,VWS V14.01,2013-02-10 21:03:00,
2013-02-10 13:08:00,55.1,-99.9,29.96,South,185,4.0,8.0,-999,0.00,,---,0.01,VWS V14.01,2013-02-10 21:08:00,
2013-02-10 13:13:00,56.0,-99.9,29.96,SSW,197,0.0,8.0,-999,0.00,,---,0.01,VWS V14.01,2013-02-10 21:13:00,
2013-02-10 13:18:00,55.8,-99.9,29.96,WNW,291,1.0,8.0,-999,0.00,,---,0.01,VWS V14.01,2013-02-10 21:18:00,
2013-02-10 13:23:00,56.4,-99.9,29.95,SSE,154,4.0,10.0,-999,0.00,,---,0.01,VWS V14.01,2013-02-10 21:23:00,
2013-02-10 13:28:00,55.1,-99.9,29.96,NNE,30,0.0,10.0,-999,0.00,,---,0.01,VWS V14.01,2013-02-10 21:28:00,
2013-02-10 13:30:00,55.4,-99.9,29.94,NW,325,2.0,10.0,-999,0.00,,---,0.01,VWS V14.01,2013-02-10 21:30:00,
2013-02-10 13:33:00,55.7,-99.9,29.95,ENE,65,2.0,3.0,-999,0.00,,---,0.01,VWS V14.01,2013-02-10 21:33:00,
2013-02-10 13:39:00,56.6,-99.9,29.95,SSE,156,3.0,7.0,-999,0.00,,---,0.01,VWS V14.01,2013-02-10 21:39:00,
2013-02-10 13:44:00,55.6,-99.9,29.95,SSW,194,0.0,13.0,-999,0.00,,---,0.01,VWS V14.01,2013-02-10 21:44:00,
2013-02-10 13:49:00,55.6,-99.9,29.95,SSW,210,3.0,13.0,-999,0.00,,---,0.01,VWS V14.01,2013-02-10 21:49:00,
2013-02-10 13:54:00,56.0,-99.9,29.95,ENE,57,1.0,13.0,-999,0.00,,---,0.01,VWS V14.01,2013-02-10 21:54:00,
2013-02-10 13:59:00,54.8,-99.9,29.95,SW,225,1.0,13.0,-999,0.00,,---,0.01,VWS V14.01,2013-02-10 21:59:00,
2013-02-10 14:00:00,56.1,-99.9,29.94,West,269,3.0,9.0,-999,0.00,,---,0.01,VWS V14.01,2013-02-10 22:00:00,
2013-02-10 14:04:00,54.0,-99.9,29.95,East,93,0.0,5.0,-999,0.00,,---,0.01,VWS V14.01,2013-02-10 22:04:00,
2013-02-10 14:09:00,55.7,-99.9,29.95,SSW,200,3.0,5.0,-999,0.00,,---,0.01,VWS V14.01,2013-02-10 22:09:00,
2013-02-10 14:14:00,55.9,-99.9,29.95,WSW,239,3.0,10.0,-999,0.00,,---,0.01,VWS V14.01,2013-02-10 22:14:00,
2013-02-10 14:19:00,55.6,-99.9,29.94,ESE,110,0.0,10.0,-999,0.00,,---,0.01,VWS V14.01,2013-02-10 22:19:00,
2013-02-10 14:24:00,55.9,-99.9,29.95,SW,223,0.0,10.0,-999,0.00,,---,0.01,VWS V14.01,2013-02-10 22:24:00,
2013-02-10 14:29:00,55.3,-99.9,29.94,SW,227,0.0,10.0,-999,0.00,,---,0.01,VWS V14.01,2013-02-10 22:29:00,
2013-02-10 14:30:00,56.3,-99.9,29.94,ESE,113,0.0,10.0,-999,0.00,,---,0.01,VWS V14.01,2013-02-10 22:30:00,
2013-02-10 14:34:00,55.8,-99.9,29.94,SE,128,2.0,5.0,-999,0.00,,---,0.01,VWS V14.01,2013-02-10 22:34:00,
2013-02-10 14:39:00,55.5,-99.9,29.94,SSW,203,0.0,8.0,-999,0.00,,---,0.01,VWS V14.01,2013-02-10 22:39:00,
2013-02-10 14:44:00,55.1,-99.9,29.94,NNW,343,2.0,9.0,-999,0.00,,---,0.01,VWS V14.01,2013-02-10 22:44:00,
2013-02-10 14:49:00,55.2,-99.9,29.94,WSW,243,0.0,9.0,-999,0.00,,---,0.01,VWS V14.01,2013-02-10 22:49:00,
2013-02-10 14:54:00,55.9,-99.9,29.94,SW,218,7.0,9.0,-999,0.00,,---,0.01,VWS V14.01,2013-02-10 22:54:00,
2013-02-10 14:59:00,55.8,-99.9,29.94,SE,127,5.0,9.0,-999,0.00,,---,0.01,VWS V14.01,2013-02-10 22:59:00,
2013-02-10 15:00:00,57.5,-99.9,29.94,SW,227,0.0,12.0,-999,0.00,,---,0.01,VWS V14.01,2013-02-10 23:00:00,
2013-02-10 15:04:00,56.0,-99.9,29.94,SW,227,2.0,10.0,-999,0.00,,---,0.01,VWS V14.01,2013-02-10 23:04:00,
2013-02-10 15:09:00,56.4,-99.9,29.94,WSW,258,3.0,10.0,-999,0.00,,---,0.01,VWS V14.01,2013-02-10 23:09:00,
2013-02-10 15:14:00,56.4,-99.9,29.94,NW,316,2.0,10.0,-999,0.00,,---,0.01,VWS V14.01,2013-02-10 23:14:00,
2013-02-10 15:19:00,56.3,-99.9,29.94,WSW,253,4.0,10.0,-999,0.00,,---,0.01,VWS V14.01,2013-02-10 23:19:00,
2013-02-10 15:24:00,56.0,-99.9,29.94,WNW,282,0.0,10.0,-999,0.00,,---,0.01,VWS V14.01,2013-02-10 23:24:00,
2013-02-10 15:29:00,56.1,-99.9,29.94,WSW,255,3.0,10.0,-999,0.00,,---,0.01,VWS V14.01,2013-02-10 23:29:00,
2013-02-10 15:30:00,58.0,-99.9,29.95,North,357,5.0,13.0,-999,0.00,,---,0.01,VWS V14.01,2013-02-10 23:30:00,
2013-02-10 15:34:00,56.6,-99.9,29.94,SSE,148,5.0,5.0,-999,0.00,,---,0.01,VWS V14.01,2013-02-10 23:34:00,
2013-02-10 15:39:00,56.6,-99.9,29.94,ESE,111,3.0,5.0,-999,0.00,,---,0.01,VWS V14.01,2013-02-10 23:39:00,
2013-02-10 15:44:00,56.9,-99.9,29.94,ENE,76,3.0,7.0,-999,0.00,,---,0.01,VWS V14.01,2013-02-10 23:44:00,
2013-02-10 15:49:00,57.5,-99.9,29.94,ENE,71,0.0,7.0,-999,0.00,,---,0.01,VWS V14.01,2013-02-10 23:49:00,
2013-02-10 15:54:00,57.3,-99.9,29.94,WNW,300,3.0,12.0,-999,0.00,,---,0.01,VWS V14.01,2013-02-10 23:54:00,
2013-02-10 15:59:00,57.7,-99.9,29.94,SW,227,0.0,12.0,-999,0.00,,---,0.01,VWS V14.01,2013-02-10 23:59:00,
2013-02-10 16:00:00,56.5,-99.9,29.95,NNW,331,9.0,15.0,-999,0.00,,---,0.01,VWS V14.01,2013-02-11 00:00:00,
2013-02-10 16:04:00,57.4,-99.9,29.95,West,273,0.0,5.0,-999,0.00,,---,0.01,VWS V14.01,2013-02-11 00:04:00,
2013-02-10 16:09:00,57.1,-99.9,29.94,West,271,5.0,8.0,-999,0.00,,---,0.01,VWS V14.01,2013-02-11 00:09:00,
2013-02-10 16:14:00,57.0,-99.9,29.94,West,278,6.0,10.0,-999,0.00,,---,0.01,VWS V14.01,2013-02-11 00:14:00,
2013-02-10 16:19:00,57.7,-99.9,29.94,NW,322,5.0,10.0,-999,0.00,,---,0.01,VWS V14.01,2013-02-11 00:19:00,
2013-02-10 16:24:00,57.7,-99.9,29.94,NW,323,8.0,10.0,-999,0.00,,---,0.01,VWS V14.01,2013-02-11 00:24:00,
2013-02-10 16:29:00,57.9,-99.9,29.95,NNW,344,3.0,13.0,-999,0.00,,---,0.01,VWS V14.01,2013-02-11 00:29:00,
2013-02-10 16:30:00,54.4,-99.9,29.96,NW,320,4.0,17.0,-999,0.00,,---,0.01,VWS V14.01,2013-02-11 00:30:00,
2013-02-10 16:34:00,57.8,-99.9,29.95,North,354,7.0,12.0,-999,0.00,,---,0.01,VWS V14.01,2013-02-11 00:34:00,
2013-02-10 16:39:00,57.8,-99.9,29.95,NNW,327,6.0,12.0,-999,0.00,,---,0.01,VWS V14.01,2013-02-11 00:39:00,
2013-02-10 16:44:00,57.4,-99.9,29.94,NNW,337,8.0,15.0,-999,0.00,,---,0.01,VWS V14.01,2013-02-11 00:44:00,
2013-02-10 16:49:00,57.2,-99.9,29.95,NNW,345,3.0,15.0,-999,0.00,,---,0.01,VWS V14.01,2013-02-11 00:49:00,
2013-02-10 16:54:00,57.0,-99.9,29.95,North,352,6.0,15.0,-999,0.00,,---,0.01,VWS V14.01,2013-02-11 00:54:00,
2013-02-10 16:59:00,56.6,-99.9,29.95,NNW,331,5.0,15.0,-999,0.00,,---,0.01,VWS V14.01,2013-02-11 00:59:00,
2013-02-10 17:00:00,53.6,-99.9,29.97,NNW,331,6.0,13.0,-999,0.00,,---,0.01,VWS V14.01,2013-02-11 01:00:00,
2013-02-10 17:04:00,56.2,-99.9,29.95,North,2,4.0,17.0,-999,0.00,,---,0.01,VWS V14.01,2013-02-11 01:04:00,
2013-02-10 17:09:00,55.9,-99.9,29.95,North,354,7.0,17.0,-999,0.00,,---,0.01,VWS V14.01,2013-02-11 01:09:00,
2013-02-10 17:14:00,56.0,-99.9,29.96,NNW,347,8.0,17.0,-999,0.00,,---,0.01,VWS V14.01,2013-02-11 01:14:00,
2013-02-10 17:19:00,55.5,-99.9,29.95,NNW,327,9.0,17.0,-999,0.00,,---,0.01,VWS V14.01,2013-02-11 01:19:00,
2013-02-10 17:24:00,54.9,-99.9,29.96,NNW,330,7.0,17.0,-999,0.00,,---,0.01,VWS V14.01,2013-02-11 01:24:00,
2013-02-10 17:29:00,54.6,-99.9,29.96,NW,312,5.0,17.0,-999,0.00,,---,0.01,VWS V14.01,2013-02-11 01:29:00,
2013-02-10 17:30:00,50.6,-99.9,29.98,NNW,341,1.0,13.0,-999,0.00,,---,0.01,VWS V14.01,2013-02-11 01:30:00,
2013-02-10 17:34:00,54.1,-99.9,29.96,NNW,339,4.0,8.0,-999,0.00,,---,0.01,VWS V14.01,2013-02-11 01:34:00,
2013-02-10 17:39:00,54.0,-99.9,29.96,NNW,337,11.0,13.0,-999,0.00,,---,0.01,VWS V14.01,2013-02-11 01:39:00,
2013-02-10 17:44:00,53.8,-99.9,29.96,NW,308,5.0,13.0,-999,0.00,,---,0.01,VWS V14.01,2013-02-11 01:44:00,
2013-02-10 17:49:00,53.8,-99.9,29.97,NNW,331,4.0,13.0,-999,0.00,,---,0.01,VWS V14.01,2013-02-11 01:49:00,
2013-02-10 17:54:00,53.3,-99.9,29.97,NNW,331,9.0,13.0,-999,0.00,,---,0.01,VWS V14.01,2013-02-11 01:54:00,
2013-02-10 17:59:00,53.6,-99.9,29.97,NNW,335,8.0,13.0,-999,0.00,,---,0.01,VWS V14.01,2013-02-11 01:59:00,
2013-02-10 18:00:00,48.2,-99.9,29.99,NNW,338,4.0,8.0,-999,0.00,,---,0.01,VWS V14.01,2013-02-11 02:00:00,
2013-02-10 18:04:00,53.5,-99.9,29.97,North,355,6.0,11.0,-999,0.00,,---,0.01,VWS V14.01,2013-02-11 02:04:00,
2013-02-10 18:09:00,53.1,-99.9,29.97,NNW,338,5.0,12.0,-999,0.00,,---,0.01,VWS V14.01,2013-02-11 02:09:00,
2013-02-10 18:14:00,53.3,-99.9,29.98,NNW,348,3.0,13.0,-999,0.00,,---,0.01,VWS V14.01,2013-02-11 02:14:00,
2013-02-10 18:19:00,52.3,-99.9,29.98,NNW,344,5.0,13.0,-999,0.00,,---,0.01,VWS V14.01,2013-02-11 02:19:00,
2013-02-10 18:24:00,52.0,-99.9,29.98,North,1,1.0,13.0,-999,0.00,,---,0.01,VWS V14.01,2013-02-11 02:24:00,
2013-02-10 18:29:00,51.4,-99.9,29.98,North,356,5.0,13.0,-999,0.00,,---,0.01,VWS V14.01,2013-02-11 02:29:00,
2013-02-10 18:30:00,46.4,-99.9,29.99,North,357,1.0,8.0,-999,0.00,,---,0.01,VWS V14.01,2013-02-11 02:30:00,
2013-02-10 18:35:00,51.0,-99.9,29.98,North,359,5.0,6.0,-999,0.00,,---,0.01,VWS V14.01,2013-02-11 02:35:00,
2013-02-10 18:40:00,50.5,-99.9,29.98,NW,323,2.0,8.0,-999,0.00,,---,0.01,VWS V14.01,2013-02-11 02:40:00,
2013-02-10 18:45:00,49.2,-99.9,29.98,NNW,340,0.0,8.0,-999,0.00,,---,0.01,VWS V14.01,2013-02-11 02:45:00,
2013-02-10 18:50:00,47.8,-99.9,29.99,NNW,346,0.0,8.0,-999,0.00,,---,0.01,VWS V14.01,2013-02-11 02:50:00,
2013-02-10 18:55:00,48.6,-99.9,29.98,North,350,3.0,8.0,-999,0.00,,---,0.01,VWS V14.01,2013-02-11 02:55:00,
2013-02-10 19:00:00,48.1,-99.9,29.98,North,3,5.0,8.0,-999,0.00,,---,0.01,VWS V14.01,2013-02-11 03:00:00,
2013-02-10 19:05:00,48.5,-99.9,29.99,North,352,3.0,8.0,-999,0.00,,---,0.01,VWS V14.01,2013-02-11 03:05:00,
2013-02-10 19:10:00,48.3,-99.9,29.98,North,349,3.0,8.0,-999,0.00,,---,0.01,VWS V14.01,2013-02-11 03:10:00,
2013-02-10 19:15:00,48.1,-99.9,29.98,North,350,6.0,8.0,-999,0.00,,---,0.01,VWS V14.01,2013-02-11 03:15:00,
2013-02-10 19:20:00,47.4,-99.9,29.99,North,349,5.0,8.0,-999,0.00,,---,0.01,VWS V14.01,2013-02-11 03:20:00,
2013-02-10 19:25:00,46.3,-99.9,29.99,NNW,342,1.0,8.0,-999,0.00,,---,0.01,VWS V14.01,2013-02-11 03:25:00,
2013-02-10 19:30:00,46.7,-99.9,29.99,NNW,338,1.0,8.0,-999,0.00,,---,0.01,VWS V14.01,2013-02-11 03:30:00,
2013-02-10 19:35:00,46.1,-99.9,29.99,WNW,298,1.0,4.0,-999,0.00,,---,0.01,VWS V14.01,2013-02-11 03:35:00,
2013-02-10 19:40:00,45.9,-99.9,29.99,NW,318,2.0,5.0,-999,0.00,,---,0.01,VWS V14.01,2013-02-11 03:40:00,
2013-02-10 19:45:00,42.7,-99.9,29.99,NW,317,0.0,5.0,-999,0.00,,---,0.01,VWS V14.01,2013-02-11 03:45:00,
2013-02-10 19:50:00,41.1,-99.9,29.99,NW,304,3.0,5.0,-999,0.00,,---,0.01,VWS V14.01,2013-02-11 03:50:00,
2013-02-10 19:55:00,42.4,-99.9,29.99,NW,322,0.0,5.0,-999,0.00,,---,0.01,VWS V14.01,2013-02-11 03:55:00,
2013-02-10 20:00:00,41.3,-99.9,29.99,NW,322,1.0,5.0,-999,0.00,,---,0.01,VWS V14.01,2013-02-11 04:00:00,
2013-02-10 20:05:00,39.9,-99.9,29.99,NW,322,0.0,2.0,-999,0.00,,---,0.01,VWS V14.01,2013-02-11 04:05:00,
2013-02-10 20:10:00,39.4,-99.9,30.00,NW,322,0.0,2.0,-999,0.00,,---,0.01,VWS V14.01,2013-02-11 04:10:00,
2013-02-10 20:15:00,39.3,-99.9,30.00,NW,322,0.0,2.0,-999,0.00,,---,0.01,VWS V14.01,2013-02-11 04:15:00,
2013-02-10 20:20:00,38.7,-99.9,30.00,NW,322,1.0,2.0,-999,0.00,,---,0.01,VWS V14.01,2013-02-11 04:20:00,
2013-02-10 20:25:00,38.8,-99.9,30.00,NW,322,0.0,2.0,-999,0.00,,---,0.01,VWS V14.01,2013-02-11 04:25:00,
2013-02-10 20:30:00,38.3,-99.9,30.00,NW,322,0.0,3.0,-999,0.00,,---,0.01,VWS V14.01,2013-02-11 04:30:00,
2013-02-10 20:35:00,38.1,-99.9,30.00,NW,322,0.0,0.0,-999,0.00,,---,0.01,VWS V14.01,2013-02-11 04:35:00,
2013-02-10 20:40:00,37.7,-99.9,30.01,NW,322,0.0,0.0,-999,0.00,,---,0.01,VWS V14.01,2013-02-11 04:40:00,
2013-02-10 20:45:00,37.0,-99.9,30.01,NW,322,0.0,1.0,-999,0.00,,---,0.01,VWS V14.01,2013-02-11 04:45:00,
2013-02-10 20:50:00,37.1,-99.9,30.01,SW,235,1.0,3.0,-999,0.00,,---,0.01,VWS V14.01,2013-02-11 04:50:00,
2013-02-10 20:55:00,36.8,-99.9,30.01,SW,235,2.0,3.0,-999,0.00,,---,0.01,VWS V14.01,2013-02-11 04:55:00,
2013-02-10 21:00:00,36.8,-99.9,30.01,SW,235,0.0,3.0,-999,0.00,,---,0.01,VWS V14.01,2013-02-11 05:00:00,
2013-02-10 21:05:00,36.4,-99.9,30.01,WNW,282,2.0,3.0,-999,0.00,,---,0.01,VWS V14.01,2013-02-11 05:05:00,
2013-02-10 21:10:00,36.0,-99.9,30.01,NNW,336,0.0,3.0,-999,0.00,,---,0.01,VWS V14.01,2013-02-11 05:10:00,
2013-02-10 21:15:00,36.0,-99.9,30.01,NNW,336,0.0,3.0,-999,0.00,,---,0.01,VWS V14.01,2013-02-11 05:15:00,
2013-02-10 21:20:00,35.4,-99.9,30.01,NNW,336,0.0,3.0,-999,0.00,,---,0.01,VWS V14.01,2013-02-11 05:20:00,
2013-02-10 21:25:00,35.2,-99.9,30.01,NNW,336,1.0,3.0,-999,0.00,,---,0.01,VWS V14.01,2013-02-11 05:25:00,
2013-02-10 21:30:00,35.0,-99.9,30.01,West,277,2.0,4.0,-999,0.00,,---,0.01,VWS V14.01,2013-02-11 05:30:00,
2013-02-10 21:35:00,34.9,-99.9,30.01,West,277,2.0,2.0,-999,0.00,,---,0.01,VWS V14.01,2013-02-11 05:35:00,
2013-02-10 21:40:00,34.6,-99.9,30.01,West,277,0.0,3.0,-999,0.00,,---,0.01,VWS V14.01,2013-02-11 05:40:00,
2013-02-10 21:45:00,34.9,-99.9,30.02,WNW,288,5.0,6.0,-999,0.00,,---,0.01,VWS V14.01,2013-02-11 05:45:00,
2013-02-10 21:50:00,35.7,-99.9,30.02,North,5,3.0,6.0,-999,0.00,,---,0.01,VWS V14.01,2013-02-11 05:50:00,
2013-02-10 21:55:00,36.9,-99.9,30.02,North,352,0.0,7.0,-999,0.00,,---,0.01,VWS V14.01,2013-02-11 05:55:00,
2013-02-10 22:00:00,35.8,-99.9,30.02,North,357,3.0,7.0,-999,0.00,,---,0.01,VWS V14.01,2013-02-11 06:00:00,
2013-02-10 22:05:00,36.1,-99.9,30.02,WNW,300,2.0,5.0,-999,0.00,,---,0.01,VWS V14.01,2013-02-11 06:05:00,
2013-02-10 22:10:00,34.8,-99.9,30.02,West,272,0.0,6.0,-999,0.00,,---,0.01,VWS V14.01,2013-02-11 06:10:00,
2013-02-10 22:15:00,34.2,-99.9,30.02,North,2,0.0,6.0,-999,0.00,,---,0.01,VWS V14.01,2013-02-11 06:15:00,
2013-02-10 22:20:00,33.4,-99.9,30.02,North,10,0.0,6.0,-999,0.00,,---,0.01,VWS V14.01,2013-02-11 06:20:00,
2013-02-10 22:25:00,33.5,-99.9,30.02,NW,310,0.0,6.0,-999,0.00,,---,0.01,VWS V14.01,2013-02-11 06:25:00,
2013-02-10 22:30:00,33.0,-99.9,30.02,NW,310,0.0,6.0,-999,0.00,,---,0.01,VWS V14.01,2013-02-11 06:30:00,
2013-02-10 22:35:00,32.2,-99.9,30.02,NW,310,0.0,0.0,-999,0.00,,---,0.01,VWS V14.01,2013-02-11 06:35:00,
2013-02-10 22:40:00,31.6,-99.9,30.02,NW,310,0.0,0.0,-999,0.00,,---,0.01,VWS V14.01,2013-02-11 06:40:00,
2013-02-10 22:45:00,32.1,-99.9,30.02,WNW,295,1.0,5.0,-999,0.00,,---,0.01,VWS V14.01,2013-02-11 06:45:00,
2013-02-10 22:50:00,31.7,-99.9,30.02,WNW,295,0.0,5.0,-999,0.00,,---,0.01,VWS V14.01,2013-02-11 06:50:00,
2013-02-10 22:55:00,31.3,-99.9,30.02,WNW,295,0.0,5.0,-999,0.00,,---,0.01,VWS V14.01,2013-02-11 06:55:00,
2013-02-10 23:00:00,30.2,-99.9,30.02,WNW,301,0.0,4.0,-999,0.00,,---,0.00,VWS V14.01,2013-02-11 07:00:00,
2013-02-10 23:01:00,31.1,-99.9,30.02,WNW,301,4.0,5.0,-999,0.00,,---,0.01,VWS V14.01,2013-02-11 07:01:00,
2013-02-10 23:06:00,32.7,-99.9,30.02,WNW,300,2.0,4.0,-999,0.00,,---,0.01,VWS V14.01,2013-02-11 07:06:00,
2013-02-10 23:11:00,33.6,-99.9,30.03,WNW,303,0.0,5.0,-999,0.00,,---,0.01,VWS V14.01,2013-02-11 07:11:00,
2013-02-10 23:16:00,32.2,-99.9,30.02,WNW,303,2.0,5.0,-999,0.00,,---,0.01,VWS V14.01,2013-02-11 07:16:00,
2013-02-10 23:21:00,31.4,-99.9,30.02,WNW,303,0.0,5.0,-999,0.00,,---,0.01,VWS V14.01,2013-02-11 07:21:00,
2013-02-10 23:26:00,30.7,-99.9,30.02,WNW,303,0.0,5.0,-999,0.00,,---,0.01,VWS V14.01,2013-02-11 07:26:00,
2013-02-10 23:30:00,29.9,-99.9,30.02,NW,310,0.0,3.0,-999,0.00,,---,0.00,VWS V14.01,2013-02-11 07:30:00,
2013-02-10 23:31:00,30.9,-99.9,30.02,WNW,303,0.0,5.0,-999,0.00,,---,0.01,VWS V14.01,2013-02-11 07:31:00,
2013-02-10 23:36:00,30.7,-99.9,30.02,WNW,303,0.0,2.0,-999,0.00,,---,0.01,VWS V14.01,2013-02-11 07:36:00,
2013-02-10 23:41:00,29.9,-99.9,30.02,WNW,301,0.0,4.0,-999,0.00,,---,0.01,VWS V14.01,2013-02-11 07:41:00,
2013-02-10 23:46:00,30.3,-99.9,30.02,WNW,301,0.0,4.0,-999,0.00,,---,0.01,VWS V14.01,2013-02-11 07:46:00,
2013-02-10 23:51:00,30.3,-99.9,30.02,WNW,301,0.0,4.0,-999,0.00,,---,0.01,VWS V14.01,2013-02-11 07:51:00,
2013-02-10 23:56:00,30.2,-99.9,30.02,WNW,301,0.0,4.0,-999,0.00,,---,0.01,VWS V14.01,2013-02-11 07:56:00,